Stations météo

réclame
Mon MeteoGroup
Aviemore, Grande-Bretagne (3063): Température de l'air & dewpoint: 16.01.2018 20:00:00 - 22.01.2018 20:00:00 (GMT)Aviemore, Grande-Bretagne (3063): Vitesse du vent & gusts: 16.01.2018 20:00:00 - 22.01.2018 20:00:00 (GMT)Aviemore, Grande-Bretagne (3063): Direction du vent: 16.01.2018 20:00:00 - 22.01.2018 20:00:00 (GMT)Aviemore, Grande-Bretagne (3063): reduced air pressure: 16.01.2018 20:00:00 - 22.01.2018 20:00:00 (GMT)Aviemore, Grande-Bretagne (3063): visibility: 16.01.2018 20:00:00 - 22.01.2018 20:00:00 (GMT)Aviemore, Grande-Bretagne (3063): Ensoleillement: 16.01.2018 20:00:00 - 22.01.2018 20:00:00 (GMT)Aviemore, Grande-Bretagne (3063): Quantités de précipitations: 16.01.2018 20:00:00 - 22.01.2018 20:00:00 (GMT)
Date & Time tt [°C] td [°C] ff [km/h] ff [knt] fx [km/h] fx [knt] dd ppp [hPa] vv [km] sd [min] rr [mm]
22.01.2018 20:00:00 - - - - - - - - - - -
22.01.2018 19:00:00 3,7 2,5 13 7 - - SW 1005,7 15 0 0,0
22.01.2018 18:00:00 3,6 1,6 9 5 - - SSW 1005,5 23 0 0,0
22.01.2018 17:00:00 3,9 1,5 9 5 - - SSW 1004,8 28 0 0,0
22.01.2018 16:00:00 4,8 1,7 11 6 - - SW 1004,1 21 0 0,0
22.01.2018 15:00:00 4,6 1,7 9 5 - - SW 1003,3 35 0 0,0
22.01.2018 14:00:00 4,2 1,9 9 5 - - SSW 1003,0 16 0 0,0
22.01.2018 13:00:00 4,4 2,1 13 7 - - SW 1001,8 7 30 0,0
22.01.2018 12:00:00 4,6 2,0 9 5 - - SW 1001,1 24 0 0,2
22.01.2018 11:00:00 3,8 2,1 8 4 - - SW 1000,9 26 0 0,0
22.01.2018 10:00:00 4,0 1,9 11 6 - - SW 999,9 16 0 0,0
22.01.2018 09:00:00 3,6 1,9 9 5 - - SW 999,3 22 0 1,4
22.01.2018 08:00:00 2,6 1,7 9 5 - - SW 998,9 16 0 2,2
22.01.2018 07:00:00 3,0 1,9 11 6 - - SW 998,2 6 0 9,2
22.01.2018 06:00:00 2,2 1,5 8 4 - - SSW 998,1 13 0 0,2
22.01.2018 05:00:00 2,8 1,4 8 4 - - SW 997,4 20 0 0,0
22.01.2018 04:00:00 3,1 1,3 9 5 - - SW 997,1 24 0 0,0
22.01.2018 03:00:00 3,1 1,4 9 5 - - SW 996,6 9 0 0,0
22.01.2018 02:00:00 2,9 1,2 9 5 - - SW 996,3 22 0 0,0
22.01.2018 01:00:00 3,2 1,1 8 4 - - SSW 996,1 21 0 0,0
22.01.2018 00:00:00 3,3 1,5 5 3 - - SSW 995,9 23 - 0,0
21.01.2018 23:00:00 3,5 1,5 13 7 - - SW 995,4 35 0 0,0
21.01.2018 22:00:00 1,3 0,2 15 8 - - SSW 995,6 24 0 0,0
21.01.2018 21:00:00 0,8 -0,3 16 9 - - SSW 995,3 10 0 0,0
21.01.2018 20:00:00 1,0 -1,3 16 9 55 30 SW 995,7 8 0 0,0
21.01.2018 19:00:00 1,2 -1,3 22 12 54 29 SW 994,9 6 0 0,0
21.01.2018 18:00:00 1,5 -1,2 22 12 50 27 SW 995,9 4,9 0 0,0
21.01.2018 17:00:00 1,4 -1,0 24 13 55 30 SW 996,4 3,4 0 0,0
21.01.2018 16:00:00 1,6 -1,7 18 10 - - SW 997,7 50 0 0,0
21.01.2018 15:00:00 0,3 -2,6 11 6 - - SSW 1000,0 40 0 0,0
21.01.2018 14:00:00 1,4 -4,3 18 10 - - SSW 1001,6 20 0 0,0
21.01.2018 13:00:00 1,1 -4,7 15 8 - - SSW 1003,4 50 0 0,0
21.01.2018 12:00:00 0,2 -3,3 11 6 - - SSW 1005,0 50 0 0,0
21.01.2018 11:00:00 -4,8 -5,4 4 2 - - N 1006,7 45 0 0,0
21.01.2018 10:00:00 -7,5 -8,2 5 3 - - NNE 1008,8 50 0 0,0
21.01.2018 09:00:00 -8,9 -9,6 4 2 - - W 1009,7 25 0 0,0
21.01.2018 08:00:00 -10,2 -11,1 4 2 - - NNE 1010,6 50 0 0,0
21.01.2018 07:00:00 -10,0 -11,3 2 1 - - NW 1010,7 50 0 0,0
21.01.2018 06:00:00 -8,6 -9,6 2 1 - - N 1011,5 50 0 0,0
21.01.2018 05:00:00 -7,8 -8,5 2 1 - - N 1012,3 50 0 0,0
21.01.2018 04:00:00 -8,7 -9,6 2 1 - - SW 1012,6 40 0 0,0
21.01.2018 03:00:00 -8,9 -9,8 2 1 - - SSW 1012,5 40 0 0,0
21.01.2018 02:00:00 -8,8 -9,7 2 1 - - W 1012,5 45 0 0,0
21.01.2018 01:00:00 -8,6 -9,6 2 1 - - W 1011,9 15 0 0,0
21.01.2018 00:00:00 -8,2 -9,0 4 2 - - WSW 1011,3 26 - 0,0
20.01.2018 23:00:00 -7,6 -8,3 2 1 - - SE 1010,9 23 0 0,0
20.01.2018 22:00:00 -7,2 -8,3 2 1 - - S 1010,2 40 0 0,0
20.01.2018 21:00:00 -6,5 -7,2 5 3 - - WSW 1009,3 40 0 0,0
20.01.2018 20:00:00 -5,5 -6,2 4 2 - - W 1008,4 35 0 0,0
20.01.2018 19:00:00 -4,4 -4,9 4 2 - - WSW 1007,5 45 0 0,0
20.01.2018 18:00:00 -3,9 -4,4 2 1 - - N 1006,1 21 0 0,0
20.01.2018 17:00:00 -4,3 -5,1 2 1 - - WNW 1005,0 35 0 0,0
20.01.2018 16:00:00 -3,6 -4,6 4 2 - - WSW 1003,9 40 0 0,0
20.01.2018 15:00:00 -2,8 -4,7 2 1 - - WSW 1002,8 50 6 0,0
20.01.2018 14:00:00 -1,2 -4,0 4 2 - - SSW 1001,4 40 54 0,0
20.01.2018 13:00:00 -1,3 -3,7 9 5 - - S 1000,6 30 60 0,0
20.01.2018 12:00:00 -3,7 -5,2 2 1 - - ESE 1000,6 40 42 0,0
20.01.2018 11:00:00 -5,2 -6,2 2 1 - - S 1000,4 18 36 0,0
20.01.2018 10:00:00 -5,3 -5,7 4 2 - - WSW 1000,1 50 0 0,0
20.01.2018 09:00:00 -5,6 -6,0 4 2 - - W 999,4 50 0 0,0
20.01.2018 08:00:00 -4,8 -6,5 5 3 - - SW 998,5 40 0 0,0
20.01.2018 07:00:00 -3,5 -4,2 9 5 - - WSW 997,9 50 0 0,0
20.01.2018 06:00:00 -4,3 -5,0 5 3 - - W 998,1 50 0 0,0
20.01.2018 05:00:00 -2,8 -3,5 8 4 - - WSW 997,4 50 0 0,0
20.01.2018 04:00:00 -2,5 -3,9 5 3 - - WSW 997,6 50 0 0,0
20.01.2018 03:00:00 -1,7 -2,6 13 7 - - SSW 997,5 50 0 0,0
20.01.2018 02:00:00 -1,2 -2,3 8 4 - - SSW 997,3 50 0 0,0
20.01.2018 01:00:00 -2,9 -4,5 2 1 - - S 997,5 50 0 0,0
20.01.2018 00:00:00 -1,2 -2,9 9 5 - - SW 997,3 24 - 0,0
19.01.2018 23:00:00 -1,1 -2,8 9 5 - - SSW 997,2 50 0 0,0
19.01.2018 22:00:00 -2,0 -3,2 8 4 - - SSW 997,5 50 0 0,0
19.01.2018 21:00:00 -1,4 -3,4 8 4 - - SW 997,5 45 0 0,0
19.01.2018 20:00:00 -2,0 -4,1 5 3 - - SW 997,8 50 0 0,0
19.01.2018 19:00:00 -1,4 -3,6 9 5 - - SW 997,6 50 0 0,0
19.01.2018 18:00:00 -1,1 -2,8 9 5 - - SW 997,3 45 0 0,0
19.01.2018 17:00:00 -0,9 -2,2 8 4 - - SSW 997,0 4,8 0 0,0
19.01.2018 16:00:00 -0,7 -2,8 8 4 - - SSW 997,0 50 0 0,0
19.01.2018 15:00:00 -1,0 -2,8 8 4 - - SSW 996,6 50 12 0,0
19.01.2018 14:00:00 -0,6 -2,2 11 6 - - SSW 996,5 26 0 0,0
19.01.2018 13:00:00 -0,1 -2,6 8 4 - - SSW 996,6 50 42 0,0
19.01.2018 12:00:00 -0,2 -2,4 13 7 - - SSW 996,2 35 48 0,0
19.01.2018 11:00:00 -0,3 -2,1 11 6 - - SSW 996,2 40 42 0,0
19.01.2018 10:00:00 -0,8 -2,1 13 7 - - SSW 996,2 50 0 0,0
19.01.2018 09:00:00 -1,0 -1,9 9 5 - - SSW 996,4 4,9 0 0,0
19.01.2018 08:00:00 -1,8 -2,6 9 5 - - SW 996,7 4,6 0 0,0
19.01.2018 07:00:00 -1,4 -2,7 13 7 - - SW 996,2 50 0 0,0
19.01.2018 06:00:00 -0,9 -1,5 9 5 - - SW 996,7 3,7 0 0,0
19.01.2018 05:00:00 -1,2 -1,5 11 6 - - SW 996,4 3,5 0 0,0
19.01.2018 04:00:00 -1,0 -1,1 9 5 - - SSW 996,5 4,5 0 0,0
19.01.2018 03:00:00 -1,2 -1,4 5 3 - - SW 997,2 7 0 0,0
19.01.2018 02:00:00 -0,9 -1,3 9 5 - - SSW 997,1 0,3 0 0,0
19.01.2018 01:00:00 -0,7 -1,7 9 5 - - SW 997,1 40 0 0,0
19.01.2018 00:00:00 -1,3 -2,7 9 5 - - SW 997,0 50 - 0,0
18.01.2018 23:00:00 -0,9 -2,4 8 4 - - SSW 997,4 5 0 0,0
18.01.2018 22:00:00 -0,9 -1,7 9 5 - - SSW 997,0 40 0 0,0
18.01.2018 21:00:00 -1,0 -2,3 8 4 - - SW 997,4 7 0 0,0
18.01.2018 20:00:00 -1,7 -2,4 8 4 - - SSW 997,0 50 0 0,0
18.01.2018 19:00:00 -1,1 -2,9 5 3 - - SSW 996,6 50 0 0,0
18.01.2018 18:00:00 -1,9 -3,0 5 3 - - S 996,3 40 0 0,0
18.01.2018 17:00:00 -2,3 -2,8 5 3 - - NNE 995,9 35 0 0,0
18.01.2018 16:00:00 -0,9 -1,8 2 1 - - SW 995,2 45 6 0,0
18.01.2018 15:00:00 0,0 -2,0 4 2 - - NNW 994,8 40 18 0,0
18.01.2018 14:00:00 0,2 -1,3 9 5 - - SSW 994,2 45 18 0,0
18.01.2018 13:00:00 0,3 -1,2 8 4 - - SSW 993,9 40 30 0,0
18.01.2018 12:00:00 -0,1 -1,3 8 4 - - SSW 993,9 35 30 0,0
18.01.2018 11:00:00 -0,3 -2,1 11 6 - - SSW 993,7 35 30 0,0
18.01.2018 10:00:00 -1,1 -2,1 5 3 - - SSW 993,4 40 0 0,0
18.01.2018 09:00:00 -2,3 -2,7 5 3 - - SW 992,7 19 0 0,0
18.01.2018 08:00:00 -3,4 -3,7 2 1 - - SE 992,4 18 0 0,0
18.01.2018 07:00:00 -3,2 -3,3 2 1 - - SSW 991,3 13 0 0,0
18.01.2018 06:00:00 -4,1 -4,4 4 2 - - NE 991,2 21 0 0,0
18.01.2018 05:00:00 -4,0 -4,2 2 1 - - WSW 990,6 13 0 0,0
18.01.2018 04:00:00 -4,7 -5,1 2 1 - - WSW 990,3 17 0 0,0
18.01.2018 03:00:00 -4,1 -4,6 2 1 - - NNW 990,0 18 0 0,0
18.01.2018 02:00:00 -3,0 -3,4 4 2 - - W 989,5 23 0 0,0
18.01.2018 01:00:00 -2,3 -3,3 2 1 - - W 989,4 30 0 0,0
18.01.2018 00:00:00 -1,7 -2,5 9 5 - - WSW 989,5 35 - 0,0
17.01.2018 23:00:00 -2,6 -3,7 2 1 - - SW 990,1 30 0 0,0
17.01.2018 22:00:00 -1,1 -2,4 8 4 - - SSW 990,2 28 0 0,0
17.01.2018 21:00:00 -1,1 -3,0 5 3 - - WSW 991,3 25 0 0,0
17.01.2018 20:00:00 -0,4 -2,8 8 4 - - SW 991,8 27 0 0,0
17.01.2018 19:00:00 -0,3 -2,2 9 5 - - SW 992,7 30 0 0,0
17.01.2018 18:00:00 0,0 -1,4 8 4 - - SW 993,0 35 0 0,0
17.01.2018 17:00:00 0,6 -0,2 9 5 - - SSW 993,3 11 0 0,0
17.01.2018 16:00:00 0,7 -0,1 4 2 - - SW 993,3 8 0 0,0
17.01.2018 15:00:00 0,6 -0,2 4 2 - - SW 993,2 1,2 0 0,0
17.01.2018 14:00:00 0,2 -0,6 9 5 - - SSW 992,7 35 0 0,0
17.01.2018 13:00:00 1,0 -1,0 9 5 - - SW 992,6 4,8 0 0,0
17.01.2018 12:00:00 0,9 -1,8 11 6 - - SW 992,5 50 0 0,0
17.01.2018 11:00:00 0,9 -0,8 15 8 - - SW 991,9 1,4 0 0,0
17.01.2018 10:00:00 0,3 -1,5 9 5 - - SW 991,0 40 0 0,0
17.01.2018 09:00:00 -0,5 -1,1 8 4 - - SW 990,4 45 0 0,0
17.01.2018 08:00:00 -1,1 -3,1 9 5 - - SW 990,0 40 0 0,0
17.01.2018 07:00:00 -0,3 -1,4 9 5 - - SW 988,7 1,8 0 0,0
17.01.2018 06:00:00 -0,9 -2,2 9 5 - - WSW 987,3 23 0 0,0
17.01.2018 05:00:00 -0,8 -1,5 9 5 - - SW 986,1 6 0 0,0
17.01.2018 04:00:00 -0,4 -1,4 8 4 - - WSW 984,6 1,5 0 0,0
17.01.2018 03:00:00 -2,2 -3,1 8 4 - - SW 983,5 21 0 0,0
17.01.2018 02:00:00 -2,7 -3,4 8 4 - - SW 982,6 50 0 0,0
17.01.2018 01:00:00 -3,1 -3,7 8 4 - - SSW 982,0 25 0 0,0
17.01.2018 00:00:00 -2,6 -2,9 9 5 - - SW 981,0 30 - 0,0
16.01.2018 23:00:00 -2,3 -2,6 9 5 - - SSW 980,2 0,9 0 0,0
16.01.2018 22:00:00 -2,5 -2,9 8 4 - - SW 979,5 50 0 0,0
16.01.2018 21:00:00 -2,4 -2,7 8 4 - - SW 979,1 1,6 0 0,0
16.01.2018 20:00:00 -2,1 -2,4 4 2 - - SSW 979,2 0,7 0 0,0

tt = Température de l'air
td = dewpoint
ff = Vitesse du vent
fx = gusts
dd = Direction du vent
ppp = reduced air pressure
vv = visibility
sd = Ensoleillement
rr = Quantités de précipitations

stations d'obs. à proximité